MDT,Max TemperatureF,Mean TemperatureF,Min TemperatureF,Max Dew PointF,MeanDew PointF,Min DewpointF,Max Humidity, Mean Humidity, Min Humidity, Max Sea Level PressureIn, Mean Sea Level PressureIn, Min Sea Level PressureIn, Max VisibilityMiles, Mean VisibilityMiles, Min VisibilityMiles, Max Wind SpeedMPH, Mean Wind SpeedMPH, Max Gust SpeedMPH,PrecipitationIn, CloudCover, Events, WindDirDegrees
2013-8-1,93,74,55,53,42,31,83,48,12,29.93,29.79,29.70,10,10,10,25,10,32,0.00,1,,254
2013-8-2,83,67,51,43,37,27,61,37,13,29.98,29.92,29.78,10,9,7,24,11,36,0.00,0,,207
2013-8-3,88,66,44,45,35,24,83,47,10,30.05,29.98,29.92,10,10,10,17,7,24,0.00,0,,217
2013-8-4,92,69,45,46,35,22,83,46,8,30.03,29.96,29.88,10,10,10,17,6,24,0.00,0,,223
2013-8-5,96,71,45,42,33,21,71,40,8,29.97,29.89,29.79,10,10,10,25,8,38,0.00,1,,258
2013-8-6,91,69,47,41,37,32,68,41,14,29.96,29.89,29.83,10,10,8,17,6,22,0.00,0,,159
2013-8-7,92,69,45,45,36,22,76,42,8,29.96,29.90,29.83,10,10,8,13,2,16,0.00,0,,341
2013-8-8,91,70,48,48,41,33,71,43,15,30.01,29.91,29.82,10,10,5,36,7,43,0.01,2,Thunderstorm,325
2013-8-9,90,73,55,49,40,25,72,41,9,29.99,29.92,29.84,10,10,10,17,6,21,0.00,0,,342
2013-8-10,92,70,48,46,37,27,80,45,10,30.03,29.95,29.89,10,10,9,22,6,30,0.00,1,,257
2013-8-11,92,71,49,43,34,21,74,41,8,30.01,29.95,29.89,10,10,10,23,6,32,0.00,1,,238
2013-8-12,90,67,44,46,37,26,76,44,11,30.01,29.97,29.93,10,10,10,25,9,31,0.00,1,,348
2013-8-13,90,69,48,47,39,31,77,45,12,30.19,30.04,29.98,10,10,10,28,7,36,T,3,Rain,342
2013-8-14,91,69,46,46,39,27,86,48,10,30.07,30.00,29.91,10,10,6,10,4,14,0.00,0,,9
2013-8-15,96,70,44,43,33,15,80,43,6,30.06,29.97,29.91,10,9,4,15,4,21,0.00,1,,328
2013-8-16,96,70,44,45,34,26,71,40,9,30.01,29.96,29.93,10,10,7,18,6,24,0.00,0,,289
2013-8-17,95,71,46,44,36,25,71,40,8,30.01,29.94,29.88,10,10,8,16,5,21,0.00,0,,221
2013-8-18,93,73,53,47,41,32,67,40,12,30.04,29.95,29.90,10,10,9,18,9,24,0.00,0,,212
2013-8-19,93,72,50,45,40,33,55,34,13,30.04,29.95,29.88,10,9,6,16,8,22,0.00,0,,206
2013-8-20,94,79,63,49,42,33,45,29,13,29.96,29.89,29.84,10,10,7,23,8,30,0.00,0,,203
2013-8-21,83,72,60,53,50,47,67,48,28,30.03,29.98,29.92,10,10,9,22,8,25,0.00,2,,208
2013-8-22,90,71,52,53,49,44,83,53,22,30.07,29.99,29.84,10,10,6,24,6,33,0.02,2,Rain-Thunderstorm,236
2013-8-23,88,72,55,54,48,40,83,54,24,29.99,29.87,29.81,10,10,10,26,9,38,T,1,,224
2013-8-24,85,69,52,55,49,34,83,56,28,30.09,29.96,29.85,10,10,7,29,7,43,0.21,4,Rain-Thunderstorm,30
2013-8-25,86,68,50,53,48,43,89,55,21,30.07,29.98,29.89,10,10,10,24,7,35,T,1,,245
2013-8-26,84,71,57,56,50,45,80,56,31,30.12,30.00,29.91,10,10,10,26,7,35,T,4,Rain-Thunderstorm,194
2013-8-27,84,69,54,53,50,47,83,56,28,30.06,29.98,29.91,10,10,10,13,4,16,0.00,3,,306
2013-8-28,85,70,54,58,53,50,86,59,32,30.13,30.00,29.94,10,10,10,32,6,43,0.03,3,Rain-Thunderstorm,222
2013-8-29,92,73,53,54,50,45,89,55,21,30.10,30.04,29.98,10,10,10,23,7,29,0.00,1,,284
2013-8-30,92,73,53,52,47,39,83,50,16,30.22,30.04,29.94,10,10,7,23,9,29,0.00,1,,228
2013-8-31,88,67,45,45,37,23,76,43,9,30.20,30.01,29.95,10,8,5,16,4,20,0.00,0,,230